When you browse on this site, cookies collect data to enhance your experience and personalize the content and advertising you see.
Visit our Privacy Policy to learn more. By continuing to use the site, you agree to this use of cookies and data.
  • In Czech Republic
  • List of Countries
  • For 7 days
  • Water Temperature
  • Satellite Maps
  • Weather Map
  • Weather Widgets
  • user-avatar
    Login

    Hourly Weather Belize

    Today, 19 May, Sunday

    Time Temperature Precipitation Wind Pressure Humidity
    00:00 +29°C° 0 mm 5 mps 757 mmHg 84%
    01:00 +29°C° 0.3 mm 5 mps 756 mmHg 83%
    02:00 +29°C° 0.3 mm 5 mps 756 mmHg 83%
    03:00 +29°C° 0.3 mm 5 mps 756 mmHg 83%
    04:00 +29°C° 0 mm 5 mps 756 mmHg 83%
    05:00 +29°C° 0 mm 5 mps 756 mmHg 83%
    06:00 +29°C° 0 mm 5 mps 756 mmHg 83%
    07:00 +32°C° 0.5 mm 5 mps 757 mmHg 77%
    08:00 +33°C° 0.5 mm 5 mps 757 mmHg 71%
    09:00 +34°C° 0.5 mm 5 mps 757 mmHg 65%
    10:00 +34°C° 0 mm 6 mps 757 mmHg 64%
    11:00 +35°C° 0 mm 6 mps 757 mmHg 62%
    12:00 +35°C° 0 mm 6 mps 757 mmHg 60%
    13:00 +35°C° 0 mm 6 mps 757 mmHg 61%
    14:00 +34°C° 0 mm 6 mps 756 mmHg 62%
    15:00 +34°C° 0 mm 6 mps 756 mmHg 63%
    16:00 +33°C° 0 mm 6 mps 756 mmHg 68%
    17:00 +32°C° 0 mm 5 mps 756 mmHg 73%
    18:00 +30°C° 0 mm 5 mps 756 mmHg 78%
    19:00 +30°C° 0 mm 5 mps 756 mmHg 78%
    20:00 +29°C° 0 mm 5 mps 757 mmHg 79%
    21:00 +29°C° 0 mm 5 mps 757 mmHg 80%
    22:00 +29°C° 0 mm 6 mps 757 mmHg 80%
    23:00 +29°C° 0 mm 6 mps 758 mmHg 80%

    Tomorrow, 20 May, Monday

    Time Temperature Precipitation Wind Pressure Humidity
    00:00 +29°C° 0 mm 6 mps 758 mmHg 80%
    01:00 +29°C° 0 mm 6 mps 757 mmHg 81%
    02:00 +29°C° 0 mm 6 mps 757 mmHg 81%
    03:00 +29°C° 0 mm 6 mps 757 mmHg 81%
    04:00 +29°C° 0 mm 6 mps 757 mmHg 80%
    05:00 +29°C° 0 mm 6 mps 757 mmHg 80%
    06:00 +29°C° 0 mm 6 mps 757 mmHg 79%
    07:00 +30°C° 0 mm 6 mps 757 mmHg 74%
    08:00 +32°C° 0 mm 6 mps 758 mmHg 68%
    09:00 +34°C° 0 mm 6 mps 759 mmHg 62%
    10:00 +34°C° 0 mm 6 mps 758 mmHg 60%
    11:00 +35°C° 0 mm 6 mps 758 mmHg 58%
    12:00 +35°C° 0 mm 6 mps 758 mmHg 56%
    13:00 +35°C° 0 mm 6 mps 758 mmHg 58%
    14:00 +34°C° 0 mm 6 mps 757 mmHg 60%
    15:00 +34°C° 0 mm 6 mps 756 mmHg 61%
    16:00 +33°C° 0 mm 5 mps 756 mmHg 66%
    17:00 +32°C° 0 mm 5 mps 756 mmHg 70%
    18:00 +30°C° 0 mm 5 mps 757 mmHg 75%
    19:00 +30°C° 0 mm 6 mps 757 mmHg 76%
    20:00 +29°C° 0 mm 6 mps 758 mmHg 78%
    21:00 +29°C° 0 mm 6 mps 758 mmHg 80%
    22:00 +29°C° 0.1 mm 6 mps 758 mmHg 81%
    23:00 +29°C° 0.1 mm 6 mps 758 mmHg 83%

    Day after tomorrow, 21 May, Tuesday

    Time Temperature Precipitation Wind Pressure Humidity
    00:00 +28°C° 0.1 mm 6 mps 758 mmHg 84%
    01:00 +28°C° 0.1 mm 6 mps 757 mmHg 84%
    02:00 +28°C° 0.1 mm 6 mps 757 mmHg 85%
    03:00 +28°C° 0.1 mm 6 mps 756 mmHg 85%
    04:00 +28°C° 0.1 mm 6 mps 756 mmHg 85%
    05:00 +28°C° 0.1 mm 6 mps 756 mmHg 85%
    06:00 +28°C° 0.1 mm 6 mps 756 mmHg 85%
    07:00 +30°C° 0.1 mm 6 mps 757 mmHg 79%
    08:00 +32°C° 0.1 mm 6 mps 757 mmHg 74%
    09:00 +33°C° 0.1 mm 6 mps 758 mmHg 68%
    10:00 +34°C° 0.1 mm 6 mps 757 mmHg 65%
    11:00 +34°C° 0.1 mm 6 mps 757 mmHg 63%
    12:00 +35°C° 0.1 mm 6 mps 757 mmHg 60%
    13:00 +35°C° 0 mm 6 mps 756 mmHg 61%
    14:00 +34°C° 0 mm 6 mps 755 mmHg 62%
    15:00 +34°C° 0 mm 6 mps 755 mmHg 63%
    16:00 +33°C° 0 mm 6 mps 755 mmHg 68%
    17:00 +32°C° 0 mm 6 mps 755 mmHg 72%
    18:00 +30°C° 0 mm 6 mps 755 mmHg 77%
    19:00 +30°C° 0.1 mm 6 mps 756 mmHg 79%
    20:00 +29°C° 0.1 mm 6 mps 757 mmHg 81%
    21:00 +29°C° 0.1 mm 6 mps 758 mmHg 84%
    22:00 +29°C° 0.1 mm 6 mps 758 mmHg 84%
    23:00 +29°C° 0.1 mm 6 mps 757 mmHg 85%

    22 May, Wednesday

    Time Temperature Precipitation Wind Pressure Humidity
    00:00 +29°C° 0.1 mm 6 mps 757 mmHg 85%
    01:00 +29°C° 0 mm 6 mps 757 mmHg 85%
    02:00 +29°C° 0 mm 6 mps 756 mmHg 84%
    03:00 +29°C° 0 mm 6 mps 756 mmHg 83%
    04:00 +29°C° 0 mm 6 mps 756 mmHg 83%
    05:00 +29°C° 0 mm 6 mps 756 mmHg 83%
    06:00 +29°C° 0 mm 6 mps 756 mmHg 83%
    07:00 +30°C° 0.1 mm 6 mps 757 mmHg 78%
    08:00 +32°C° 0.1 mm 6 mps 758 mmHg 74%
    09:00 +33°C° 0.1 mm 6 mps 758 mmHg 70%
    10:00 +33°C° 0.1 mm 6 mps 758 mmHg 67%
    11:00 +34°C° 0.1 mm 6 mps 758 mmHg 65%
    12:00 +34°C° 0.1 mm 6 mps 757 mmHg 63%
    13:00 +34°C° 0.1 mm 6 mps 757 mmHg 63%
    14:00 +34°C° 0.1 mm 6 mps 756 mmHg 63%
    15:00 +34°C° 0.1 mm 6 mps 756 mmHg 63%
    16:00 +33°C° 0.1 mm 7 mps 756 mmHg 68%
    17:00 +32°C° 0.1 mm 7 mps 756 mmHg 73%
    18:00 +30°C° 0.1 mm 7 mps 757 mmHg 77%
    19:00 +30°C° 0.3 mm 7 mps 757 mmHg 79%
    20:00 +29°C° 0.3 mm 7 mps 758 mmHg 82%
    21:00 +29°C° 0.3 mm 7 mps 759 mmHg 84%
    22:00 +29°C° 0.1 mm 7 mps 758 mmHg 83%
    23:00 +29°C° 0.1 mm 7 mps 758 mmHg 82%

    23 May, Thursday

    Time Temperature Precipitation Wind Pressure Humidity
    00:00 +29°C° 0.1 mm 7 mps 758 mmHg 81%
    01:00 +29°C° 0.1 mm 7 mps 758 mmHg 81%
    02:00 +29°C° 0.1 mm 7 mps 757 mmHg 82%
    03:00 +29°C° 0.1 mm 7 mps 757 mmHg 82%
    04:00 +29°C° 0.1 mm 7 mps 757 mmHg 81%
    05:00 +29°C° 0.1 mm 7 mps 758 mmHg 81%
    06:00 +29°C° 0.1 mm 7 mps 758 mmHg 81%
    07:00 +30°C° 0.1 mm 7 mps 758 mmHg 76%
    08:00 +32°C° 0.1 mm 7 mps 759 mmHg 71%
    09:00 +33°C° 0.1 mm 7 mps 759 mmHg 66%
    10:00 +34°C° 0 mm 7 mps 759 mmHg 63%
    11:00 +34°C° 0 mm 7 mps 759 mmHg 61%
    12:00 +35°C° 0 mm 7 mps 758 mmHg 59%
    13:00 +34°C° 0 mm 7 mps 758 mmHg 59%
    14:00 +34°C° 0 mm 6 mps 757 mmHg 59%
    15:00 +34°C° 0 mm 6 mps 757 mmHg 59%
    16:00 +33°C° 0 mm 6 mps 757 mmHg 64%
    17:00 +32°C° 0 mm 6 mps 757 mmHg 69%
    18:00 +30°C° 0 mm 6 mps 758 mmHg 74%
    19:00 +30°C° 0 mm 6 mps 758 mmHg 76%
    20:00 +29°C° 0 mm 6 mps 759 mmHg 78%
    21:00 +29°C° 0 mm 6 mps 759 mmHg 81%
    22:00 +29°C° 0.1 mm 6 mps 759 mmHg 81%
    23:00 +29°C° 0.1 mm 6 mps 759 mmHg 82%

    24 May, Friday

    Time Temperature Precipitation Wind Pressure Humidity
    00:00 +28°C° 0.1 mm 6 mps 759 mmHg 82%
    01:00 +28°C° 0.1 mm 6 mps 758 mmHg 83%
    02:00 +28°C° 0.1 mm 6 mps 758 mmHg 83%
    03:00 +28°C° 0.1 mm 6 mps 758 mmHg 84%
    04:00 +28°C° 0.1 mm 5 mps 758 mmHg 83%
    05:00 +28°C° 0.1 mm 5 mps 759 mmHg 82%
    06:00 +28°C° 0.1 mm 5 mps 759 mmHg 82%
    07:00 +30°C° 0 mm 5 mps 759 mmHg 75%
    08:00 +32°C° 0 mm 5 mps 760 mmHg 68%
    09:00 +33°C° 0 mm 5 mps 760 mmHg 61%
    10:00 +34°C° 0 mm 5 mps 760 mmHg 59%
    11:00 +35°C° 0 mm 5 mps 759 mmHg 57%
    12:00 +35°C° 0 mm 4 mps 759 mmHg 54%
    13:00 +35°C° 0 mm 4 mps 758 mmHg 55%
    14:00 +34°C° 0 mm 4 mps 758 mmHg 57%
    15:00 +34°C° 0 mm 4 mps 758 mmHg 58%
    16:00 +33°C° 0 mm 4 mps 758 mmHg 63%
    17:00 +32°C° 0 mm 4 mps 758 mmHg 69%
    18:00 +30°C° 0 mm 4 mps 758 mmHg 74%
    19:00 +29°C° 0.1 mm 4 mps 759 mmHg 77%
    20:00 +29°C° 0.1 mm 4 mps 759 mmHg 79%
    21:00 +28°C° 0.1 mm 4 mps 760 mmHg 82%
    22:00 +28°C° 0.8 mm 4 mps 760 mmHg 83%
    23:00 +28°C° 0.8 mm 4 mps 760 mmHg 85%
    Show more